Content
SEND FEEDBACK

Daily
Averages
Monthly
Summary
Canada

CORNER BROOK, NEWFOUNDLAND


Home > North America > Canada > Newfoundland
Elevation: 16 feet     Latitude: 48 57N     Longitude: 057 57W

WEATHER
 
SELECT A DAY
Number of Records: 180,785;   Date Range: 1/1/95 - 7/23/14
 
SHARE

PRINT THIS DATA

[ ← Previous Day ]
WEATHER ALMANAC - FEBRUARY 14, 2013
[ Next Day → ]
[ °C ]   °F
Weather ElementAverageHighLow
Temperature28 °F33.8 °F (1:30 pm)23 °F (8:30 am)
Dewpoint23.1 °F25 °F (2:30 am)20 °F (8:30 pm)
Humidity81.3 %93 % (8:30 am)60 % (2:30 pm)
Barometer29.69 in29.79 in (10:30 pm)29.56 in (1:30 am)
Wind Speed5.6 mph12.7 mph (11:30 am)
Weather ElementAverage
Visibility15 mi
Wind DirectionSSW (209.2 °)

Weather ElementTotal
Precipitation---
Heating Degree Days36.6 (Base 65)
Averaged from 27 records on February 14, 2013
WEATHER CONDITIONS BREAKOUT
WIND DIRECTION BREAKOUT
WEATHER BY HOUR - FEBRUARY 14, 2013
[ °C ]   °F
Local TimeTemperatureDewpointHumidityBarometerVisibilityWind DirectionWind SpeedGust SpeedPrecipitationEventsConditions
1:30 AM28.4 °F24.8 °F86 %29.56 in15.0 miWSW (250°)8.1 mphOvercast
2:30 AM29.0 °F25.0 °F79 %29.59 in15.0 miWest (270°)8.1 mphOvercast
2:30 AM28.4 °F24.8 °F86 %29.58 in15.0 miWest (270°)9.2 mphOvercast
3:30 AM28.4 °F24.8 °F86 %29.60 in15.0 miWSW (240°)8.1 mphOvercast
4:30 AM28.4 °F24.8 °F86 %29.63 in15.0 miWest (270°)9.2 mphOvercast
5:30 AM28.4 °F23.0 °F80 %29.65 in15.0 miSW (230°)9.2 mphOvercast
6:30 AM26.6 °F23.0 °F86 %29.66 in15.0 miWSW (250°)5.8 mphMostly Cloudy
7:30 AM26.6 °F23.0 °F86 %29.67 in15.0 miWSW (250°)5.8 mphScattered Clouds
8:30 AM24.0 °F21.0 °F84 %29.69 in15.0 miSSW (200°)4.6 mphPartly Cloudy
8:30 AM23.0 °F21.2 °F93 %29.68 in15.0 miSSW (200°)4.6 mphScattered Clouds
9:30 AM28.4 °F23.0 °F80 %29.70 in15.0 miSW (230°)6.9 mphScattered Clouds
10:30 AM30.2 °F23.0 °F75 %29.72 in15.0 miWest (260°)6.9 mphMostly Cloudy
11:30 AM30.2 °F24.8 °F80 %29.72 in15.0 miSSW (210°)12.7 mphMostly Cloudy
12:30 PM30.2 °F24.8 °F80 %29.71 in15.0 miSSW (210°)11.5 mphMostly Cloudy
1:30 PM33.8 °F24.8 °F70 %29.69 in15.0 miWSW (250°)5.8 mphMostly Cloudy
2:30 PM33.0 °F24.0 °F60 %29.68 in15.0 miWNW (300°)5.8 mphMostly Cloudy
2:30 PM32.0 °F24.8 °F75 %29.68 in15.0 miWest (280°)5.8 mphMostly Cloudy
3:30 PM32.0 °F24.8 °F75 %29.69 in15.0 miWNW (300°)4.6 mphScattered Clouds
4:30 PM32.0 °F24.8 °F75 %29.70 in15.0 miWSW (250°)5.8 mphMostly Cloudy
5:30 PM28.4 °F23.0 °F80 %29.71 in15.0 miNW (310°)4.6 mphMostly Cloudy
6:30 PM26.6 °F21.2 °F80 %29.72 in15.0 miCalmScattered Clouds
7:30 PM23.0 °F21.2 °F93 %29.75 in15.0 miNNE (30°)2.3 mphMostly Cloudy
8:30 PM25.0 °F20.0 °F76 %29.78 in15.0 miCalmMostly Cloudy
8:30 PM24.8 °F21.2 °F86 %29.78 in15.0 miCalmMostly Cloudy
9:30 PM24.8 °F21.2 °F86 %29.78 in15.0 miSouth (190°)3.5 mphOvercast
10:30 PM24.8 °F21.2 °F86 %29.79 in15.0 miCalmOvercast
11:30 PM24.8 °F21.2 °F86 %29.79 in15.0 miSouth (190°)2.3 mphOvercast
Hourly data recorded from CYDF, located miles away from Corner Brook, Newfoundland







STORIES FROM OUR PARTNERS